Hrossey — VSTY6 — position and weather

sailwx.info

Track history (hours):
 
Tides and Currents Weather Stations Pressure Air Temp Water Temp Dewpoint Dewpoint Depression Visibility Wind Speed Wind Dir Waves Ship Positions

Hrossey

Operator: NorthLink Orkey & Shetland Ferries Ltd

Last reported at 2017-Mar-27 00:25 UTC. Time now 2017-Mar-27 06:50 UTC.
Position N 59°05' W 002°26'.

Length 125 m; draft 5.4 m.

Type: Passenger vessel. MMSI: 235448000.

Date/timePositionNaut miles runAvg speedWind from/ knotsBaromVisibWave heightAir tempDewpointWater temp
2017-Mar-27 00:25N 59°05' W 002°26'1011.4
2017-Mar-26 23:33N 59°00' W 002°43'8 8.2
2017-Mar-26 22:33N 58°60' W 002°58'4 3.7
2017-Mar-26 21:33N 59°01' W 002°51'1818.4
2017-Mar-26 20:33N 58°46' W 002°29'2020.0
2017-Mar-26 19:33N 58°28' W 002°16'2120.7
2017-Mar-26 18:33N 58°08' W 002°03'3122.4
2017-Mar-26 17:10N 57°39' W 001°42'1423.2
2017-Mar-26 16:33N 57°25' W 001°42'2020.3
2017-Mar-26 15:33N 57°09' W 002°04'1 0.6
2017-Mar-26 14:33N 57°09' W 002°05'0 0.0
2017-Mar-26 13:33N 57°09' W 002°05'0 0.0
2017-Mar-26 12:33N 57°09' W 002°05'0 0.0
2017-Mar-26 11:33N 57°09' W 002°05'0 0.0
2017-Mar-26 10:33N 57°09' W 002°05'0 0.0
2017-Mar-26 09:33N 57°09' W 002°05'0 0.0
2017-Mar-26 08:33N 57°09' W 002°05'0 0.0
2017-Mar-26 07:33N 57°09' W 002°05'0 0.0
2017-Mar-26 06:33N 57°09' W 002°05'0 0.5
2017-Mar-26 05:33N 57°09' W 002°05'1514.7
2017-Mar-26 04:33N 57°21' W 001°48'1717.0
2017-Mar-26 03:33N 57°37' W 001°39'22 0.7
2017-Mar-24 19:30N 57°16' W 001°54'9 9.9
2017-Mar-24 18:33N 57°09' W 002°05'0 0.0
2017-Mar-24 17:33N 57°09' W 002°05'0 0.0
2017-Mar-24 16:33N 57°09' W 002°05'0 0.0
2017-Mar-24 15:33N 57°09' W 002°05'0 0.0
2017-Mar-24 14:33N 57°09' W 002°05'0 0.0
2017-Mar-24 13:33N 57°09' W 002°05'0 0.0
2017-Mar-24 12:33N 57°09' W 002°05'0 0.0
2017-Mar-24 11:33N 57°09' W 002°05'0 0.0
2017-Mar-24 10:33N 57°09' W 002°05'0 0.0
2017-Mar-24 09:33N 57°09' W 002°05'0 0.0
2017-Mar-24 08:33N 57°09' W 002°05'0 0.0
2017-Mar-24 07:33N 57°09' W 002°05'0 0.5
2017-Mar-24 06:33N 57°09' W 002°05'1714.7
2017-Mar-24 05:25N 57°22' W 001°47'1516.9
2017-Mar-24 04:31N 57°37' W 001°39'12 0.4
2017-Mar-22 22:04N 57°49' W 001°37'815.6
2017-Mar-22 21:33N 57°41' W 001°36'1514.7
2017-Mar-22 20:33N 57°27' W 001°38'1514.9
2017-Mar-22 19:33N 57°14' W 001°53'8 8.4
2017-Mar-22 18:33N 57°09' W 002°05'0 0.0
2017-Mar-22 17:33N 57°09' W 002°05'0 0.0
2017-Mar-22 16:33N 57°09' W 002°05'0 0.0
2017-Mar-22 15:33N 57°09' W 002°05'0 0.0
2017-Mar-22 14:33N 57°09' W 002°05'0 0.0
2017-Mar-22 13:33N 57°09' W 002°05'0 0.0
2017-Mar-22 12:33N 57°09' W 002°05'0 0.0
2017-Mar-22 11:33N 57°09' W 002°05'0 0.0
2017-Mar-22 10:33N 57°09' W 002°05'0 0.0
2017-Mar-22 09:33N 57°09' W 002°05'0 0.0
2017-Mar-22 08:33N 57°09' W 002°05'0 0.0
2017-Mar-22 07:33N 57°09' W 002°05'1 1.4
2017-Mar-22 06:33N 57°09' W 002°03'1111.5
2017-Mar-22 05:33N 57°01' W 001°48'7 7.1
2017-Mar-22 04:32N 56°56' W 001°58'17 5.3
2017-Mar-22 01:25N 56°40' W 002°06'1113.2
2017-Mar-22 00:33N 56°28' W 002°09'1010.0
2017-Mar-21 23:33N 56°20' W 002°18'1414.3
2017-Mar-21 22:33N 56°12' W 002°39'9 8.8
2017-Mar-21 21:33N 56°07' W 002°53'8 7.8
2017-Mar-21 20:33N 56°04' W 003°05'  
Track history (hours):
 
Tides and Currents Weather Stations Pressure Air Temp Water Temp Dewpoint Dewpoint Depression Visibility Wind Speed Wind Dir Waves Ship Positions

Hrossey

Operator: NorthLink Orkey & Shetland Ferries Ltd

Last reported at 2017-Mar-27 00:25 UTC. Time now 2017-Mar-27 06:50 UTC.
Position N 59°05' W 002°26'.

Length 125 m; draft 5.4 m.

Type: Passenger vessel. MMSI: 235448000.

Date/timePositionNaut miles runAvg speedWind from/ knotsBaromVisibWave heightAir tempDewpointWater temp
2017-Mar-27 00:25N 59°05' W 002°26'1011.4
2017-Mar-26 23:33N 59°00' W 002°43'8 8.2
2017-Mar-26 22:33N 58°60' W 002°58'4 3.7
2017-Mar-26 21:33N 59°01' W 002°51'1818.4
2017-Mar-26 20:33N 58°46' W 002°29'2020.0
2017-Mar-26 19:33N 58°28' W 002°16'2120.7
2017-Mar-26 18:33N 58°08' W 002°03'3122.4
2017-Mar-26 17:10N 57°39' W 001°42'1423.2
2017-Mar-26 16:33N 57°25' W 001°42'2020.3
2017-Mar-26 15:33N 57°09' W 002°04'1 0.6
2017-Mar-26 14:33N 57°09' W 002°05'0 0.0
2017-Mar-26 13:33N 57°09' W 002°05'0 0.0
2017-Mar-26 12:33N 57°09' W 002°05'0 0.0
2017-Mar-26 11:33N 57°09' W 002°05'0 0.0
2017-Mar-26 10:33N 57°09' W 002°05'0 0.0
2017-Mar-26 09:33N 57°09' W 002°05'0 0.0
2017-Mar-26 08:33N 57°09' W 002°05'0 0.0
2017-Mar-26 07:33N 57°09' W 002°05'0 0.0
2017-Mar-26 06:33N 57°09' W 002°05'0 0.5
2017-Mar-26 05:33N 57°09' W 002°05'1514.7
2017-Mar-26 04:33N 57°21' W 001°48'1717.0
2017-Mar-26 03:33N 57°37' W 001°39'22 0.7
2017-Mar-24 19:30N 57°16' W 001°54'9 9.9
2017-Mar-24 18:33N 57°09' W 002°05'0 0.0
2017-Mar-24 17:33N 57°09' W 002°05'0 0.0
2017-Mar-24 16:33N 57°09' W 002°05'0 0.0
2017-Mar-24 15:33N 57°09' W 002°05'0 0.0
2017-Mar-24 14:33N 57°09' W 002°05'0 0.0
2017-Mar-24 13:33N 57°09' W 002°05'0 0.0
2017-Mar-24 12:33N 57°09' W 002°05'0 0.0
2017-Mar-24 11:33N 57°09' W 002°05'0 0.0
2017-Mar-24 10:33N 57°09' W 002°05'0 0.0
2017-Mar-24 09:33N 57°09' W 002°05'0 0.0
2017-Mar-24 08:33N 57°09' W 002°05'0 0.0
2017-Mar-24 07:33N 57°09' W 002°05'0 0.5
2017-Mar-24 06:33N 57°09' W 002°05'1714.7
2017-Mar-24 05:25N 57°22' W 001°47'1516.9
2017-Mar-24 04:31N 57°37' W 001°39'12 0.4
2017-Mar-22 22:04N 57°49' W 001°37'815.6
2017-Mar-22 21:33N 57°41' W 001°36'1514.7
2017-Mar-22 20:33N 57°27' W 001°38'1514.9
2017-Mar-22 19:33N 57°14' W 001°53'8 8.4
2017-Mar-22 18:33N 57°09' W 002°05'0 0.0
2017-Mar-22 17:33N 57°09' W 002°05'0 0.0
2017-Mar-22 16:33N 57°09' W 002°05'0 0.0
2017-Mar-22 15:33N 57°09' W 002°05'0 0.0
2017-Mar-22 14:33N 57°09' W 002°05'0 0.0
2017-Mar-22 13:33N 57°09' W 002°05'0 0.0
2017-Mar-22 12:33N 57°09' W 002°05'0 0.0
2017-Mar-22 11:33N 57°09' W 002°05'0 0.0
2017-Mar-22 10:33N 57°09' W 002°05'0 0.0
2017-Mar-22 09:33N 57°09' W 002°05'0 0.0
2017-Mar-22 08:33N 57°09' W 002°05'0 0.0
2017-Mar-22 07:33N 57°09' W 002°05'1 1.4
2017-Mar-22 06:33N 57°09' W 002°03'1111.5
2017-Mar-22 05:33N 57°01' W 001°48'7 7.1
2017-Mar-22 04:32N 56°56' W 001°58'17 5.3
2017-Mar-22 01:25N 56°40' W 002°06'1113.2
2017-Mar-22 00:33N 56°28' W 002°09'1010.0
2017-Mar-21 23:33N 56°20' W 002°18'1414.3
2017-Mar-21 22:33N 56°12' W 002°39'9 8.8
2017-Mar-21 21:33N 56°07' W 002°53'8 7.8
2017-Mar-21 20:33N 56°04' W 003°05'  

Dump ship's entire track history